| time (UTC) | temp F | wind direction | speed MPH | gust MPH | rain 1hr in | rain 24hr in | rain mn in | humidity % | barometer mb |
| 20260505011030 | 69 | 133 | 5.0 | 10.0 | 0.00 | 0.00 | 0.00 | 72 | 1015.2 |
| 20260505010529 | 70 | 149 | 5.0 | 9.0 | 0.00 | 0.00 | 0.00 | 72 | 1015.1 |
| 20260505010030 | 70 | 159 | 4.0 | 8.0 | 0.00 | 0.00 | 0.00 | 72 | 1015.0 |
| 20260505005530 | 70 | 132 | 4.0 | 7.0 | 0.00 | 0.00 | 0.00 | 71 | 1015.0 |
| 20260505005030 | 70 | 61 | 4.0 | 7.0 | 0.00 | 0.00 | 0.00 | 71 | 1014.9 |
| 20260505004529 | 70 | 86 | 4.0 | 9.0 | 0.00 | 0.00 | 0.00 | 71 | 1014.9 |
| 20260505004029 | 70 | 115 | 5.0 | 10.0 | 0.00 | 0.00 | 0.00 | 70 | 1014.8 |
| 20260505003529 | 71 | 106 | 5.0 | 10.0 | 0.00 | 0.00 | 0.00 | 70 | 1014.9 |
| 20260505002529 | 71 | 95 | 5.0 | 9.0 | 0.00 | 0.00 | 0.00 | 69 | 1014.8 |
| 20260505002029 | 71 | 95 | 5.0 | 13.0 | 0.00 | 0.00 | 0.00 | 69 | 1014.7 |
| 20260505001529 | 71 | 73 | 5.0 | 13.0 | 0.00 | 0.00 | 0.00 | 69 | 1014.7 |
| 20260505001029 | 71 | 157 | 4.0 | 10.0 | 0.00 | 0.00 | 0.00 | 69 | 1014.7 |
| 20260505000529 | 72 | 145 | 6.0 | 13.0 | 0.00 | 0.00 | 0.00 | 68 | 1014.7 |
| 20260505000029 | 72 | 126 | 6.0 | 13.0 | 0.00 | 0.00 | 0.00 | 67 | 1014.6 |
| 20260504235529 | 72 | 132 | 6.0 | 9.0 | 0.00 | 0.00 | 0.00 | 67 | 1014.5 |
| 20260504235028 | 72 | 127 | 7.0 | 11.0 | 0.00 | 0.00 | 0.00 | 67 | 1014.5 |
| 20260504234530 | 73 | 80 | 7.0 | 11.0 | 0.00 | 0.00 | 0.00 | 66 | 1014.4 |
| 20260504234028 | 73 | 165 | 6.0 | 12.0 | 0.00 | 0.00 | 0.00 | 65 | 1014.3 |
| 20260504233529 | 73 | 113 | 6.0 | 12.0 | 0.00 | 0.00 | 0.00 | 65 | 1014.2 |
| 20260504233030 | 73 | 118 | 7.0 | 11.0 | 0.00 | 0.00 | 0.00 | 64 | 1014.1 |
| 20260504232530 | 74 | 110 | 6.0 | 10.0 | 0.00 | 0.00 | 0.00 | 63 | 1014.2 |
| 20260504232029 | 74 | 119 | 6.0 | 11.0 | 0.00 | 0.00 | 0.00 | 63 | 1014.2 |
| 20260504231530 | 74 | 99 | 6.0 | 11.0 | 0.00 | 0.00 | 0.00 | 63 | 1014.0 |
| 20260504231029 | 74 | 118 | 6.0 | 16.0 | 0.00 | 0.00 | 0.00 | 63 | 1014.1 |
| 20260504230530 | 74 | 76 | 6.0 | 16.0 | 0.00 | 0.00 | 0.00 | 61 | 1013.9 |
| 20260504230030 | 74 | 69 | 6.0 | 10.0 | 0.00 | 0.00 | 0.00 | 60 | 1013.9 |
| 20260504225529 | 74 | 72 | 5.0 | 10.0 | 0.00 | 0.00 | 0.00 | 60 | 1014.0 |
| 20260504225030 | 74 | 125 | 5.0 | 13.0 | 0.00 | 0.00 | 0.00 | 60 | 1014.1 |
| 20260504224032 | 75 | 116 | 5.0 | 11.0 | 0.00 | 0.00 | 0.00 | 60 | 1014.1 |
| 20260504223528 | 75 | 120 | 6.0 | 11.0 | 0.00 | 0.00 | 0.00 | 59 | 1014.1 |
| 20260504222529 | 75 | 62 | 5.0 | 11.0 | 0.00 | 0.00 | 0.00 | 59 | 1014.0 |
| 20260504222030 | 75 | 357 | 5.0 | 11.0 | 0.00 | 0.00 | 0.00 | 58 | 1014.1 |
| 20260504221530 | 75 | 54 | 5.0 | 11.0 | 0.00 | 0.00 | 0.00 | 58 | 1014.0 |
| 20260504221030 | 75 | 56 | 6.0 | 12.0 | 0.00 | 0.00 | 0.00 | 58 | 1014.2 |
| 20260504220528 | 75 | 77 | 5.0 | 12.0 | 0.00 | 0.00 | 0.00 | 57 | 1014.1 |
| 20260504220029 | 75 | 160 | 5.0 | 12.0 | 0.00 | 0.00 | 0.00 | 57 | 1014.2 |
| 20260504215029 | 75 | 63 | 6.0 | 11.0 | 0.00 | 0.00 | 0.00 | 56 | 1014.1 |
| 20260504214530 | 75 | 83 | 5.0 | 11.0 | 0.00 | 0.00 | 0.00 | 56 | 1014.2 |
| 20260504214028 | 75 | 153 | 5.0 | 10.0 | 0.00 | 0.00 | 0.00 | 56 | 1014.1 |
| 20260504213529 | 75 | 62 | 6.0 | 10.0 | 0.00 | 0.00 | 0.00 | 56 | 1014.1 |
| 20260504212529 | 75 | 33 | 6.0 | 12.0 | 0.00 | 0.00 | 0.00 | 55 | 1014.1 |
| 20260504211029 | 76 | 58 | 6.0 | 12.0 | 0.00 | 0.00 | 0.00 | 55 | 1014.3 |
| 20260504210529 | 76 | 104 | 7.0 | 11.0 | 0.00 | 0.00 | 0.00 | 53 | 1014.3 |
| 20260504210029 | 76 | 119 | 6.0 | 11.0 | 0.00 | 0.00 | 0.00 | 52 | 1014.3 |
| 20260504205529 | 76 | 130 | 6.0 | 12.0 | 0.00 | 0.00 | 0.00 | 53 | 1014.3 |
| 20260504205028 | 76 | 124 | 7.0 | 13.0 | 0.00 | 0.00 | 0.00 | 53 | 1014.4 |
| 20260504204528 | 76 | 105 | 6.0 | 13.0 | 0.00 | 0.00 | 0.00 | 53 | 1014.2 |
| 20260504204033 | 76 | 94 | 6.0 | 12.0 | 0.00 | 0.00 | 0.00 | 53 | 1014.4 |
| 20260504203529 | 76 | 152 | 6.0 | 11.0 | 0.00 | 0.00 | 0.00 | 52 | 1014.5 |
| 20260504203029 | 76 | 137 | 4.0 | 10.0 | 0.00 | 0.00 | 0.00 | 52 | 1014.6 |
| 20260504202029 | 76 | 107 | 6.0 | 12.0 | 0.00 | 0.00 | 0.00 | 51 | 1014.6 |
| 20260504201528 | 77 | 143 | 6.0 | 12.0 | 0.00 | 0.00 | 0.00 | 50 | 1014.7 |
| 20260504195530 | 76 | 46 | 5.0 | 10.0 | 0.00 | 0.00 | 0.00 | 47 | 1014.6 |
| 20260504195030 | 76 | 80 | 6.0 | 10.0 | 0.00 | 0.00 | 0.00 | 47 | 1014.8 |
| 20260504194531 | 76 | 38 | 5.0 | 10.0 | 0.00 | 0.00 | 0.00 | 47 | 1014.8 |
| 20260504194029 | 77 | 110 | 4.0 | 9.0 | 0.00 | 0.00 | 0.00 | 46 | 1014.9 |
| 20260504193533 | 76 | 106 | 5.0 | 10.0 | 0.00 | 0.00 | 0.00 | 47 | 1015.0 |
| 20260504193029 | 76 | 36 | 5.0 | 10.0 | 0.00 | 0.00 | 0.00 | 48 | 1015.0 |
| 20260504192531 | 76 | 70 | 6.0 | 13.0 | 0.00 | 0.00 | 0.00 | 48 | 1015.1 |
| 20260504191530 | 77 | 93 | 5.0 | 12.0 | 0.00 | 0.00 | 0.00 | 45 | 1015.0 |
| 20260504191030 | 76 | 87 | 5.0 | 12.0 | 0.00 | 0.00 | 0.00 | 45 | 1015.2 |
| 20260504190530 | 76 | 96 | 5.0 | 11.0 | 0.00 | 0.00 | 0.00 | 45 | 1015.1 |
| 20260504185529 | 76 | 189 | 6.0 | 11.0 | 0.00 | 0.00 | 0.00 | 45 | 1015.4 |
| 20260504185029 | 77 | 55 | 4.0 | 11.0 | 0.00 | 0.00 | 0.00 | 43 | 1015.5 |
| 20260504183528 | 76 | 85 | 6.0 | 12.0 | 0.00 | 0.00 | 0.00 | 43 | 1015.6 |
| 20260504183030 | 76 | 118 | 4.0 | 9.0 | 0.00 | 0.00 | 0.00 | 41 | 1015.7 |
| 20260504182029 | 75 | 63 | 5.0 | 9.0 | 0.00 | 0.00 | 0.00 | 42 | 1015.8 |
| 20260504181529 | 76 | 98 | 5.0 | 9.0 | 0.00 | 0.00 | 0.00 | 41 | 1015.9 |
| 20260504181030 | 76 | 91 | 4.0 | 11.0 | 0.00 | 0.00 | 0.00 | 40 | 1015.9 |
| 20260504180529 | 76 | 92 | 5.0 | 11.0 | 0.00 | 0.00 | 0.00 | 39 | 1016.0 |
| 20260504175525 | 76 | 325 | 4.0 | 12.0 | 0.00 | 0.00 | 0.00 | 40 | 1016.0 |
| 20260504174526 | 75 | 130 | 4.0 | 12.0 | 0.00 | 0.00 | 0.00 | 42 | 1016.1 |
| 20260504174025 | 75 | 105 | 4.0 | 13.0 | 0.00 | 0.00 | 0.00 | 41 | 1016.2 |
| 20260504173026 | 75 | 49 | 7.0 | 11.0 | 0.00 | 0.00 | 0.00 | 42 | 1016.1 |
| 20260504172527 | 75 | 139 | 6.0 | 14.0 | 0.00 | 0.00 | 0.00 | 41 | 1016.3 |
| 20260504172026 | 75 | 11 | 6.0 | 14.0 | 0.00 | 0.00 | 0.00 | 42 | 1016.3 |
| 20260504171526 | 74 | 102 | 6.0 | 14.0 | 0.00 | 0.00 | 0.00 | 44 | 1016.3 |
| 20260504171028 | 74 | 87 | 5.0 | 14.0 | 0.00 | 0.00 | 0.00 | 43 | 1016.2 |
| 20260504170524 | 74 | 108 | 4.0 | 11.0 | 0.00 | 0.00 | 0.00 | 43 | 1016.5 |
| 20260504150801 | 73 | 4 | 4.0 | 11.0 | 0.00 | 0.00 | 0.00 | 47 | 1016.9 |
| 20260504150301 | 73 | 11 | 4.0 | 10.0 | 0.00 | 0.00 | 0.00 | 46 | 1017.0 |
| 20260504141302 | 72 | 41 | 3.0 | 10.0 | 0.00 | 0.00 | 0.00 | 52 | 1017.2 |
| 20260504140801 | 72 | 35 | 3.0 | 7.0 | 0.00 | 0.00 | 0.00 | 51 | 1017.2 |
| 20260504140302 | 71 | 0 | 2.0 | 6.0 | 0.00 | 0.00 | 0.00 | 54 | 1017.3 |
| 20260504130801 | 68 | 0 | 1.0 | 6.0 | 0.00 | 0.00 | 0.00 | 76 | 1017.3 |
| 20260504130301 | 67 | 330 | 2.0 | 7.0 | 0.00 | 0.00 | 0.00 | 79 | 1017.3 |
| 20260504110329 | 50 | 357 | 0.0 | 1.0 | 0.00 | 0.03 | 0.00 | 99 | 1016.4 |
| 20260504100329 | 50 | 0 | 0.0 | 0.0 | 0.00 | 0.03 | 0.00 | 99 | 1016.2 |
| 20260504081804 | 51 | 0 | 0.0 | 1.0 | 0.00 | 0.03 | 0.00 | 98 | 1016.1 |
| 20260504081302 | 51 | 0 | 0.0 | 0.0 | 0.00 | 0.03 | 0.00 | 98 | 1016.2 |
| 20260504080301 | 51 | 0 | 0.0 | 0.0 | 0.00 | 0.03 | 0.00 | 98 | 1016.2 |
| 20260504070306 | 52 | 0 | 0.0 | 0.0 | 0.00 | 0.03 | 0.00 | 98 | 1016.5 |
| 20260504045301 | 54 | 0 | 0.0 | 1.0 | 0.00 | 0.03 | 0.00 | 95 | 1017.5 |
| 20260504044801 | 54 | 0 | 0.0 | 1.0 | 0.00 | 0.03 | 0.00 | 95 | 1017.5 |
| 20260504044306 | 55 | 250 | 0.0 | 1.0 | 0.00 | 0.03 | 0.00 | 94 | 1017.5 |
| 20260504043802 | 55 | 0 | 0.0 | 1.0 | 0.00 | 0.03 | 0.00 | 94 | 1017.4 |
| 20260504042802 | 55 | 0 | 0.0 | 2.0 | 0.00 | 0.03 | 0.00 | 94 | 1017.4 |
| 20260504042304 | 56 | 0 | 0.0 | 2.0 | 0.00 | 0.03 | 0.00 | 93 | 1017.3 |
| 20260504041300 | 55 | 0 | 0.0 | 3.0 | 0.00 | 0.03 | 0.00 | 93 | 1017.3 |
| 20260504040802 | 0 | 0 | 0.0 | 0.0 | 0.00 | 0.03 | 0.00 | ||
| 20260504040301 | 0 | 0 | 0.0 | 0.0 | 0.00 | 0.03 | 0.00 | ||
| 20260504035802 | 0 | 0 | 0.0 | 0.0 | 0.00 | 0.03 | 0.03 | ||
| 20260504035301 | 0 | 0 | 0.0 | 0.0 | 0.00 | 0.03 | 0.03 | ||
| 20260504034802 | 0 | 0.0 | 0.0 | 0.00 | 0.03 | 0.03 | |||
| 20260504034302 | 0 | 0.0 | 0.0 | 0.00 | 0.03 | 0.03 | |||
| 20260504033301 | 0 | 0 | 0.0 | 0.0 | 0.00 | 0.03 | 0.03 | ||
| 20260504032802 | 58 | 0 | 0.0 | 0.0 | 0.00 | 0.03 | 0.03 | 90 | 1017.4 |
| 20260504032303 | 58 | 0 | 0.0 | 0.0 | 0.00 | 0.03 | 0.03 | 90 | 1017.4 |
| 20260504031802 | 58 | 0 | 0.0 | 0.0 | 0.00 | 0.03 | 0.03 | 90 | 1017.4 |
| 20260504031301 | 58 | 0 | 0.0 | 0.0 | 0.00 | 0.03 | 0.03 | 89 | 1017.5 |
| 20260504030801 | 59 | 0 | 0.0 | 1.0 | 0.00 | 0.03 | 0.03 | 89 | 1017.5 |
| 20260504030301 | 59 | 0 | 0.0 | 1.0 | 0.00 | 0.03 | 0.03 | 88 | 1017.5 |
| 20260504025802 | 59 | 0 | 0.0 | 0.0 | 0.00 | 0.03 | 0.03 | 87 | 1017.4 |
| 20260504025306 | 60 | 0 | 0.0 | 2.0 | 0.00 | 0.03 | 0.03 | 87 | 1017.5 |
| 20260504024802 | 60 | 0 | 0.0 | 2.0 | 0.00 | 0.03 | 0.03 | 86 | 1017.5 |
| 20260504024302 | 60 | 280 | 0.0 | 2.0 | 0.00 | 0.03 | 0.03 | 84 | 1017.4 |
| 20260504023301 | 61 | 0 | 0.0 | 1.0 | 0.00 | 0.03 | 0.03 | 82 | 1017.3 |
| 20260504022805 | 62 | 0 | 0.0 | 1.0 | 0.00 | 0.03 | 0.03 | 80 | 1017.3 |
| 20260504022301 | 63 | 0 | 0.0 | 0.0 | 0.00 | 0.03 | 0.03 | 79 | 1017.2 |
| 20260504021802 | 63 | 0 | 0.0 | 3.0 | 0.00 | 0.03 | 0.03 | 79 | 1017.2 |
| 20260504021301 | 63 | 0 | 0.0 | 3.0 | 0.00 | 0.03 | 0.03 | 79 | 1017.2 |
| 20260504020801 | 63 | 0 | 0.0 | 2.0 | 0.00 | 0.03 | 0.03 | 78 | 1017.0 |
| 20260504020306 | 64 | 0 | 0.0 | 2.0 | 0.00 | 0.03 | 0.03 | 77 | 1017.0 |
| 20260504015802 | 64 | 208 | 0.0 | 2.0 | 0.00 | 0.03 | 0.03 | 77 | 1016.8 |
| 20260504015302 | 64 | 0 | 0.0 | 2.0 | 0.00 | 0.03 | 0.03 | 76 | 1016.8 |
| 20260504014801 | 64 | 126 | 0.0 | 2.0 | 0.00 | 0.03 | 0.03 | 75 | 1016.7 |
| 20260504014301 | 64 | 0 | 0.0 | 4.0 | 0.00 | 0.03 | 0.03 | 74 | 1016.7 |
| 20260504013806 | 64 | 65 | 1.0 | 4.0 | 0.00 | 0.03 | 0.03 | 73 | 1016.6 |
| 20260504013302 | 64 | 72 | 1.0 | 4.0 | 0.00 | 0.03 | 0.03 | 73 | 1016.6 |
| 20260504012802 | 65 | 0 | 0.0 | 2.0 | 0.00 | 0.03 | 0.03 | 72 | 1016.5 |
| 20260504012304 | 65 | 76 | 0.0 | 2.0 | 0.00 | 0.03 | 0.03 | 70 | 1016.5 |
| 20260504011802 | 65 | 0 | 0.0 | 1.0 | 0.00 | 0.03 | 0.03 | 69 | 1016.3 |